Tacoma Narrows, WA
on Sunday, November 25, 2012

Sunday
Previous Day Next Day
Daily Summary
 ActualAverageRecord
Temperature
Mean Temperature °F / °C °F / °C  
Max Temperature 45°F / 7°C 47°F / 8°C 52°F / 11°C (2004)
Min Temperature 37°F / 3°C 39°F / 3°C 28°F / -2°C (2010)
Degree Days
Heating Degree Days 24    
Moisture
Dew Point 38°F / 3°C   
Average Humidity 89    
Maximum Humidity 100    
Minimum Humidity 71    
Precipitation
Precipitation 0.00 in / 0.00 cm in / cm in / cm ()
Wind
Wind Speed 3 mph / 5 km/h   
Max Wind Speed 14 mph / 23 km/h   
Max Gust Speed 21 mph / 34 km/h   
Visibility 5 miles / 8 kilometers   
Events Fog   
Averages and records for this station are not official NWS values.
Key: T is trace of precipitation, MM is missing value
Source: NWS Daily Summary
Seasonal Weather Averages
Time(PST)TemperatureDew PointHumidity Pressure Visibility Wind DirectionWind SpeedGust SpeedPrecipitationEvents Conditions
12:53 AM 42.1°F / 5.6°C 39.9°F / 4.4°C 92% 30.27 in / 1025.1 hPa 7.0 miles / 11.3 kilometers Calm Calm - N/A   Scattered Clouds
1:05 AM 42.8°F / 6.0°C 39.2°F / 4.0°C 87% 30.27 in / 1024.9 hPa 2.5 miles / 4.0 kilometers Calm Calm - N/A   Scattered Clouds
1:09 AM 41.0°F / 5.0°C 39.2°F / 4.0°C 93% 30.27 in / 1024.9 hPa 1.0 miles / 1.6 kilometers Calm Calm - N/A   Mist
1:16 AM 41.0°F / 5.0°C 39.2°F / 4.0°C 93% 30.27 in / 1024.9 hPa 0.8 miles / 1.2 kilometers Calm Calm - N/A   Mist
1:24 AM 41.0°F / 5.0°C 39.2°F / 4.0°C 93% 30.27 in / 1024.9 hPa 2.0 miles / 3.2 kilometers NE 3.5 mph / 5.6 km/h - N/A   Mostly Cloudy
1:33 AM 41.0°F / 5.0°C 39.2°F / 4.0°C 93% 30.27 in / 1024.9 hPa 3.0 miles / 4.8 kilometers NE 3.5 mph / 5.6 km/h - N/A   Overcast
1:42 AM 42.8°F / 6.0°C 39.2°F / 4.0°C 87% 30.27 in / 1024.9 hPa 2.0 miles / 3.2 kilometers NE 3.5 mph / 5.6 km/h - N/A   Overcast
1:53 AM 42.1°F / 5.6°C 39.9°F / 4.4°C 92% 30.29 in / 1025.6 hPa 2.5 miles / 4.0 kilometers Calm Calm - N/A   Overcast
2:15 AM 39.2°F / 4.0°C 37.4°F / 3.0°C 93% 30.28 in / 1025.3 hPa 1.0 miles / 1.6 kilometers Calm Calm - N/A   Overcast
2:31 AM 39.2°F / 4.0°C 39.2°F / 4.0°C 100% 30.28 in / 1025.3 hPa 0.8 miles / 1.2 kilometers Calm Calm - N/A   Overcast
2:53 AM 41.0°F / 5.0°C 39.0°F / 3.9°C 93% 30.30 in / 1025.8 hPa 1.0 miles / 1.6 kilometers Calm Calm - N/A   Overcast
3:02 AM 41.0°F / 5.0°C 39.2°F / 4.0°C 93% 30.28 in / 1025.3 hPa 2.0 miles / 3.2 kilometers Calm Calm - N/A   Overcast
3:19 AM 41.0°F / 5.0°C 39.2°F / 4.0°C 93% 30.29 in / 1025.6 hPa 4.0 miles / 6.4 kilometers Calm Calm - N/A   Overcast
3:39 AM 42.8°F / 6.0°C 39.2°F / 4.0°C 87% 30.29 in / 1025.6 hPa 3.0 miles / 4.8 kilometers Calm Calm - N/A   Overcast
3:53 AM 42.1°F / 5.6°C 39.9°F / 4.4°C 92% 30.30 in / 1026.0 hPa 1.8 miles / 2.8 kilometers Calm Calm - N/A   Overcast
4:04 AM 41.0°F / 5.0°C 39.2°F / 4.0°C 93% 30.29 in / 1025.6 hPa 0.8 miles / 1.2 kilometers Calm Calm - N/A   Overcast
4:24 AM 39.2°F / 4.0°C 37.4°F / 3.0°C 93% 30.29 in / 1025.6 hPa 0.2 miles / 0.4 kilometers Calm Calm - N/A Fog Fog
4:49 AM 39.2°F / 4.0°C 37.4°F / 3.0°C 93% 30.29 in / 1025.6 hPa 0.5 miles / 0.8 kilometers Calm Calm - N/A Fog Fog
4:53 AM 39.0°F / 3.9°C 37.0°F / 2.8°C 93% 30.31 in / 1026.2 hPa 0.5 miles / 0.8 kilometers Calm Calm - N/A Fog Fog
5:21 AM 37.4°F / 3.0°C 37.4°F / 3.0°C 100% 30.30 in / 1026.0 hPa 0.2 miles / 0.4 kilometers Calm Calm - N/A Fog Fog
5:33 AM 39.2°F / 4.0°C 37.4°F / 3.0°C 93% 30.30 in / 1026.0 hPa 0.5 miles / 0.8 kilometers Calm Calm - N/A Fog Fog
5:53 AM 37.9°F / 3.3°C 37.0°F / 2.8°C 97% 30.31 in / 1026.3 hPa 0.2 miles / 0.4 kilometers Calm Calm - N/A Fog Fog
6:07 AM 39.2°F / 4.0°C 37.4°F / 3.0°C 93% 30.30 in / 1026.0 hPa 0.8 miles / 1.2 kilometers Calm Calm - N/A   Overcast
6:26 AM 37.4°F / 3.0°C 35.6°F / 2.0°C 93% 30.30 in / 1026.0 hPa 0.2 miles / 0.4 kilometers Calm Calm - N/A Fog Fog
6:33 AM 37.4°F / 3.0°C 35.6°F / 2.0°C 93% 30.30 in / 1026.0 hPa 0.2 miles / 0.4 kilometers Calm Calm - N/A Fog Fog
6:41 AM 37.4°F / 3.0°C 35.6°F / 2.0°C 93% 30.30 in / 1026.0 hPa 0.5 miles / 0.8 kilometers Calm Calm - N/A Fog Fog
6:53 AM 37.0°F / 2.8°C 36.0°F / 2.2°C 96% 30.31 in / 1026.4 hPa 0.2 miles / 0.4 kilometers Calm Calm - N/A Fog Fog
7:04 AM 37.4°F / 3.0°C 35.6°F / 2.0°C 93% 30.30 in / 1026.0 hPa 0.2 miles / 0.4 kilometers Calm Calm - N/A Fog Fog
7:53 AM 39.9°F / 4.4°C 37.9°F / 3.3°C 93% 30.32 in / 1026.8 hPa 0.2 miles / 0.4 kilometers Calm Calm - N/A Fog Fog
8:43 AM 39.2°F / 4.0°C 39.2°F / 4.0°C 100% 30.33 in / 1027.0 hPa 0.2 miles / 0.4 kilometers North 4.6 mph / 7.4 km/h - N/A Fog Fog
8:53 AM 41.0°F / 5.0°C 39.0°F / 3.9°C 93% 30.34 in / 1027.2 hPa 1.2 miles / 2.0 kilometers NNE 3.5 mph / 5.6 km/h - N/A   Overcast
8:56 AM 41.0°F / 5.0°C 39.2°F / 4.0°C 93% 30.32 in / 1026.6 hPa 4.0 miles / 6.4 kilometers NNE 4.6 mph / 7.4 km/h - N/A   Overcast
9:49 AM 41.0°F / 5.0°C 39.2°F / 4.0°C 93% 30.34 in / 1027.3 hPa 10.0 miles / 16.1 kilometers NNE 5.8 mph / 9.3 km/h - N/A   Mostly Cloudy
9:53 AM 41.0°F / 5.0°C 39.0°F / 3.9°C 93% 30.35 in / 1027.5 hPa 10.0 miles / 16.1 kilometers NNE 9.2 mph / 14.8 km/h - N/A   Mostly Cloudy
10:32 AM 42.8°F / 6.0°C 39.2°F / 4.0°C 87% 30.34 in / 1027.3 hPa 10.0 miles / 16.1 kilometers North 9.2 mph / 14.8 km/h - N/A   Scattered Clouds
10:53 AM 43.0°F / 6.1°C 39.0°F / 3.9°C 86% 30.35 in / 1027.5 hPa 10.0 miles / 16.1 kilometers North 9.2 mph / 14.8 km/h - N/A   Scattered Clouds
11:53 AM 44.1°F / 6.7°C 37.9°F / 3.3°C 79% 30.33 in / 1027.1 hPa 10.0 miles / 16.1 kilometers North 9.2 mph / 14.8 km/h - N/A   Scattered Clouds
12:53 PM 44.1°F / 6.7°C 37.9°F / 3.3°C 79% 30.32 in / 1026.7 hPa 10.0 miles / 16.1 kilometers North 9.2 mph / 14.8 km/h - N/A   Scattered Clouds
1:25 PM 44.6°F / 7.0°C 37.4°F / 3.0°C 76% 30.30 in / 1026.0 hPa 10.0 miles / 16.1 kilometers North 8.1 mph / 13.0 km/h - N/A   Mostly Cloudy
1:53 PM 45.0°F / 7.2°C 37.0°F / 2.8°C 74% 30.31 in / 1026.2 hPa 10.0 miles / 16.1 kilometers North 8.1 mph / 13.0 km/h - N/A   Mostly Cloudy
2:22 PM 44.6°F / 7.0°C 37.4°F / 3.0°C 76% 30.30 in / 1026.0 hPa 10.0 miles / 16.1 kilometers North 10.4 mph / 16.7 km/h - N/A   Scattered Clouds
2:53 PM 45.0°F / 7.2°C 36.0°F / 2.2°C 71% 30.30 in / 1026.0 hPa 10.0 miles / 16.1 kilometers North 11.5 mph / 18.5 km/h - N/A   Scattered Clouds
3:53 PM 44.1°F / 6.7°C 36.0°F / 2.2°C 73% 30.30 in / 1025.8 hPa 10.0 miles / 16.1 kilometers North 8.1 mph / 13.0 km/h - N/A   Scattered Clouds
4:53 PM 43.0°F / 6.1°C 37.0°F / 2.8°C 80% 30.29 in / 1025.6 hPa 10.0 miles / 16.1 kilometers NNE 5.8 mph / 9.3 km/h - N/A   Clear
5:53 PM 43.0°F / 6.1°C 37.0°F / 2.8°C 80% 30.27 in / 1025.1 hPa 10.0 miles / 16.1 kilometers NNE 6.9 mph / 11.1 km/h - N/A   Scattered Clouds
6:53 PM 42.1°F / 5.6°C 37.0°F / 2.8°C 82% 30.27 in / 1024.8 hPa 10.0 miles / 16.1 kilometers NNE 8.1 mph / 13.0 km/h - N/A   Scattered Clouds
7:53 PM 42.1°F / 5.6°C 37.0°F / 2.8°C 82% 30.26 in / 1024.5 hPa 10.0 miles / 16.1 kilometers North 6.9 mph / 11.1 km/h - N/A   Scattered Clouds
8:00 PM 42.8°F / 6.0°C 37.4°F / 3.0°C 81% 30.25 in / 1024.3 hPa 10.0 miles / 16.1 kilometers NNE 9.2 mph / 14.8 km/h - N/A   Mostly Cloudy
8:28 PM 42.8°F / 6.0°C 37.4°F / 3.0°C 81% 30.24 in / 1023.9 hPa 10.0 miles / 16.1 kilometers NNE 6.9 mph / 11.1 km/h - N/A   Scattered Clouds
8:53 PM 42.1°F / 5.6°C 37.0°F / 2.8°C 82% 30.24 in / 1024.0 hPa 10.0 miles / 16.1 kilometers NNE 9.2 mph / 14.8 km/h 18.4 mph / 29.6 km/h N/A   Partly Cloudy
9:53 PM 42.1°F / 5.6°C 37.9°F / 3.3°C 85% 30.23 in / 1023.5 hPa 10.0 miles / 16.1 kilometers North 10.4 mph / 16.7 km/h - N/A   Partly Cloudy
10:53 PM 41.0°F / 5.0°C 37.0°F / 2.8°C 86% 30.21 in / 1023.0 hPa 10.0 miles / 16.1 kilometers NNE 13.8 mph / 22.2 km/h 20.7 mph / 33.3 km/h N/A   Clear
11:34 PM 41.0°F / 5.0°C 37.4°F / 3.0°C 87% 30.20 in / 1022.6 hPa 10.0 miles / 16.1 kilometers North 12.7 mph / 20.4 km/h - N/A   Scattered Clouds
11:53 PM 41.0°F / 5.0°C 37.0°F / 2.8°C 86% 30.21 in / 1023.0 hPa 10.0 miles / 16.1 kilometers North 12.7 mph / 20.4 km/h - N/A   Scattered Clouds
Moon Phase
Nov. 25 Nov. 28 Dec. 06 Dec. 13 Dec. 20
Sunrise:07:29 AM (PST) Moon Rise:02:51 PM (PST)
Sunset:04:25 PM (PST) Moon Set:04:41 AM (PST)

Copyright © 2014 The Weather Underground, Inc.